Time,TemperatureF,DewpointF,PressureIn,WindDirection,WindDirectionDegrees,WindSpeedMPH,WindSpeedGustMPH,Humidity,HourlyPrecipIn,Conditions,Clouds,dailyrainin,SolarRadiationWatts/m^2,SoftwareType,DateUTC
2013-07-05 00:02:00,63.0,52.0,30.10,West,268,9.0,17.0,69,-99.99,,,0.00,0.000000,,2013-07-05 07:02:00,
2013-07-05 00:12:00,63.0,52.0,30.10,West,268,9.0,17.0,69,-99.99,,,0.00,0.000000,,2013-07-05 07:12:00,
2013-07-05 00:43:00,61.0,52.0,30.09,West,269,9.0,18.0,72,-99.99,,,0.00,0.000000,,2013-07-05 07:43:00,
2013-07-05 00:53:00,61.0,52.0,30.09,West,269,9.0,18.0,72,-99.99,,,0.00,0.000000,,2013-07-05 07:53:00,
2013-07-05 01:02:00,61.0,52.0,30.09,West,269,9.0,18.0,72,-99.99,,,0.00,0.000000,,2013-07-05 08:02:00,
2013-07-05 01:12:00,61.0,52.0,30.09,West,269,9.0,18.0,72,-99.99,,,0.00,0.000000,,2013-07-05 08:12:00,
2013-07-05 01:43:00,61.0,52.0,30.09,West,271,10.0,15.0,73,-99.99,,,0.00,0.000000,,2013-07-05 08:43:00,
2013-07-05 01:56:00,61.0,52.0,30.09,West,271,10.0,15.0,73,-99.99,,,0.00,0.000000,,2013-07-05 08:56:00,
2013-07-05 02:04:00,61.0,52.0,-100.00,West,271,10.0,15.0,73,-99.99,,,0.00,0.000000,,2013-07-05 09:04:00,
2013-07-05 02:13:00,61.0,52.0,-100.00,West,271,10.0,15.0,73,-99.99,,,0.00,0.000000,,2013-07-05 09:13:00,
2013-07-05 02:45:00,60.0,52.0,-100.00,West,267,8.0,15.0,75,-99.99,,,0.00,0.000000,,2013-07-05 09:45:00,
2013-07-05 02:56:00,60.0,52.0,-100.00,West,267,8.0,15.0,75,-99.99,,,0.00,0.000000,,2013-07-05 09:56:00,
2013-07-05 03:04:00,60.0,52.0,30.09,West,267,8.0,15.0,75,-99.99,,,0.00,0.000000,,2013-07-05 10:04:00,
2013-07-05 03:46:00,60.0,52.0,30.09,West,270,8.0,18.0,75,-99.99,,,0.00,0.000000,,2013-07-05 10:46:00,
2013-07-05 03:57:00,60.0,52.0,30.09,West,270,8.0,18.0,75,-99.99,,,0.00,0.000000,,2013-07-05 10:57:00,
2013-07-05 04:04:00,60.0,52.0,-100.00,West,270,8.0,18.0,75,-99.99,,,0.00,0.000000,,2013-07-05 11:04:00,
2013-07-05 04:14:00,60.0,52.0,30.09,West,270,8.0,18.0,75,-99.99,,,0.00,0.000000,,2013-07-05 11:14:00,
2013-07-05 04:45:00,60.0,51.0,30.08,WNW,282,9.0,16.0,74,-99.99,,,0.00,0.000000,,2013-07-05 11:45:00,
2013-07-05 05:12:00,60.0,51.0,30.08,WNW,282,9.0,16.0,74,-99.99,,,0.00,0.000000,,2013-07-05 12:12:00,
2013-07-05 05:45:00,59.0,51.0,30.08,West,274,10.0,20.0,74,-99.99,,,0.00,0.350000,,2013-07-05 12:45:00,
2013-07-05 05:59:00,59.0,51.0,30.08,West,274,10.0,20.0,74,-99.99,,,0.00,0.350000,,2013-07-05 12:59:00,
2013-07-05 06:12:00,59.0,51.0,30.08,West,274,10.0,20.0,74,-99.99,,,0.00,0.350000,,2013-07-05 13:12:00,
2013-07-05 06:46:00,59.0,50.0,30.08,West,277,11.0,19.0,72,-99.99,,,0.00,30.570000,,2013-07-05 13:46:00,
2013-07-05 06:57:00,59.0,50.0,30.08,West,277,11.0,19.0,72,-99.99,,,0.00,30.570000,,2013-07-05 13:57:00,
2013-07-05 07:04:00,59.0,50.0,30.08,West,277,11.0,19.0,72,-99.99,,,0.00,30.570000,,2013-07-05 14:04:00,
2013-07-05 07:12:00,59.0,50.0,30.08,West,277,11.0,19.0,72,-99.99,,,0.00,30.570000,,2013-07-05 14:12:00,
2013-07-05 07:45:00,61.0,50.0,-100.00,West,264,8.0,17.0,69,-99.99,,,0.00,221.860001,,2013-07-05 14:45:00,
2013-07-05 07:56:00,61.0,50.0,-100.00,West,264,8.0,17.0,69,-99.99,,,0.00,221.860001,,2013-07-05 14:56:00,
2013-07-05 08:04:00,61.0,50.0,-100.00,West,264,8.0,17.0,69,-99.99,,,0.00,221.860001,,2013-07-05 15:04:00,
2013-07-05 08:13:00,61.0,50.0,30.10,West,264,8.0,17.0,69,-99.99,,,0.00,221.860001,,2013-07-05 15:13:00,
2013-07-05 08:43:00,61.0,51.0,-100.00,West,262,8.0,17.0,71,-99.99,,,0.00,155.970001,,2013-07-05 15:43:00,
2013-07-05 08:53:00,61.0,51.0,-100.00,West,262,8.0,17.0,71,-99.99,,,0.00,155.970001,,2013-07-05 15:53:00,
2013-07-05 09:01:00,61.0,51.0,-100.00,West,262,8.0,17.0,71,-99.99,,,0.00,155.970001,,2013-07-05 16:01:00,
2013-07-05 09:11:00,61.0,51.0,30.11,West,262,8.0,17.0,71,-99.99,,,0.00,155.970001,,2013-07-05 16:11:00,
2013-07-05 09:44:00,60.0,52.0,-100.00,WSW,252,6.0,15.0,72,-99.99,,,0.00,169.220001,,2013-07-05 16:44:00,
2013-07-05 09:53:00,60.0,52.0,-100.00,WSW,252,6.0,15.0,72,-99.99,,,0.00,169.220001,,2013-07-05 16:53:00,
2013-07-05 10:01:00,60.0,52.0,-100.00,WSW,252,6.0,15.0,72,-99.99,,,0.00,169.220001,,2013-07-05 17:01:00,
2013-07-05 10:12:00,60.0,52.0,-100.00,WSW,252,6.0,15.0,72,-99.99,,,0.00,169.220001,,2013-07-05 17:12:00,
2013-07-05 10:43:00,63.0,52.0,30.10,West,259,7.0,16.0,67,-99.99,,,0.00,686.510010,,2013-07-05 17:43:00,
2013-07-05 10:53:00,63.0,52.0,30.10,West,259,7.0,16.0,67,-99.99,,,0.00,686.510010,,2013-07-05 17:53:00,
2013-07-05 11:01:00,63.0,52.0,30.10,West,259,7.0,16.0,67,-99.99,,,0.00,686.510010,,2013-07-05 18:01:00,
2013-07-05 11:11:00,63.0,52.0,30.10,West,259,7.0,16.0,67,-99.99,,,0.00,686.510010,,2013-07-05 18:11:00,
2013-07-05 11:43:00,65.0,52.0,30.09,West,270,11.0,20.0,63,-99.99,,,0.00,903.030029,,2013-07-05 18:43:00,
2013-07-05 11:53:00,65.0,52.0,30.09,West,270,11.0,20.0,63,-99.99,,,0.00,903.030029,,2013-07-05 18:53:00,
2013-07-05 12:01:00,65.0,52.0,-100.00,West,270,11.0,20.0,63,-99.99,,,0.00,903.030029,,2013-07-05 19:01:00,
2013-07-05 12:12:00,65.0,52.0,30.09,West,270,11.0,20.0,63,-99.99,,,0.00,903.030029,,2013-07-05 19:12:00,
2013-07-05 12:42:00,65.0,52.0,30.09,West,269,11.0,20.0,62,-99.99,,,0.00,914.650024,,2013-07-05 19:42:00,
2013-07-05 12:53:00,65.0,52.0,30.09,West,269,11.0,20.0,62,-99.99,,,0.00,914.650024,,2013-07-05 19:53:00,
2013-07-05 13:01:00,65.0,52.0,-100.00,West,269,11.0,20.0,62,-99.99,,,0.00,914.650024,,2013-07-05 20:01:00,
2013-07-05 13:11:00,65.0,52.0,-100.00,West,269,11.0,20.0,62,-99.99,,,0.00,914.650024,,2013-07-05 20:11:00,
2013-07-05 13:43:00,67.0,53.0,-100.00,West,263,10.0,19.0,59,-99.99,,,0.00,947.190002,,2013-07-05 20:43:00,
2013-07-05 13:53:00,67.0,53.0,-100.00,West,263,10.0,19.0,59,-99.99,,,0.00,947.190002,,2013-07-05 20:53:00,
2013-07-05 14:01:00,67.0,53.0,30.08,West,263,10.0,19.0,59,-99.99,,,0.00,947.190002,,2013-07-05 21:01:00,
2013-07-05 14:11:00,67.0,53.0,30.08,West,263,10.0,19.0,59,-99.99,,,0.00,947.190002,,2013-07-05 21:11:00,
2013-07-05 14:42:00,67.0,52.0,30.07,West,272,12.0,22.0,58,-99.99,,,0.00,897.219971,,2013-07-05 21:42:00,
2013-07-05 14:53:00,67.0,52.0,30.07,West,272,12.0,22.0,58,-99.99,,,0.00,897.219971,,2013-07-05 21:53:00,
2013-07-05 15:01:00,67.0,52.0,-100.00,West,272,12.0,22.0,58,-99.99,,,0.00,897.219971,,2013-07-05 22:01:00,
2013-07-05 15:11:00,67.0,52.0,30.07,West,272,12.0,22.0,58,-99.99,,,0.00,897.219971,,2013-07-05 22:11:00,
2013-07-05 15:43:00,69.0,53.0,-100.00,West,267,11.0,19.0,57,-99.99,,,0.00,832.140015,,2013-07-05 22:43:00,
2013-07-05 15:53:00,69.0,53.0,-100.00,West,267,11.0,19.0,57,-99.99,,,0.00,832.140015,,2013-07-05 22:53:00,
2013-07-05 16:02:00,69.0,53.0,-100.00,West,267,11.0,19.0,57,-99.99,,,0.00,832.140015,,2013-07-05 23:02:00,
2013-07-05 16:11:00,69.0,53.0,-100.00,West,267,11.0,19.0,57,-99.99,,,0.00,832.140015,,2013-07-05 23:11:00,
2013-07-05 16:43:00,69.0,54.0,30.03,West,267,11.0,19.0,57,-99.99,,,0.00,723.820007,,2013-07-05 23:43:00,
2013-07-05 16:53:00,69.0,54.0,30.03,West,267,11.0,19.0,57,-99.99,,,0.00,723.820007,,2013-07-05 23:53:00,
2013-07-05 17:01:00,69.0,54.0,30.03,West,267,11.0,19.0,57,-99.99,,,0.00,723.820007,,2013-07-06 00:01:00,
2013-07-05 17:11:00,69.0,54.0,30.03,West,267,11.0,19.0,57,-99.99,,,0.00,723.820007,,2013-07-06 00:11:00,
2013-07-05 17:42:00,70.0,54.0,30.01,West,270,12.0,20.0,55,-99.99,,,0.00,577.849976,,2013-07-06 00:42:00,
2013-07-05 17:53:00,70.0,54.0,30.01,West,270,12.0,20.0,55,-99.99,,,0.00,577.849976,,2013-07-06 00:53:00,
2013-07-05 18:01:00,70.0,54.0,-100.00,West,270,12.0,20.0,55,-99.99,,,0.00,577.849976,,2013-07-06 01:01:00,
2013-07-05 18:12:00,70.0,54.0,30.01,West,270,12.0,20.0,55,-99.99,,,0.00,577.849976,,2013-07-06 01:12:00,
2013-07-05 18:42:00,71.0,54.0,30.00,West,264,8.0,15.0,55,-99.99,,,0.00,424.779999,,2013-07-06 01:42:00,
2013-07-05 18:53:00,71.0,54.0,30.00,West,264,8.0,15.0,55,-99.99,,,0.00,424.779999,,2013-07-06 01:53:00,
2013-07-05 19:02:00,71.0,54.0,30.00,West,264,8.0,15.0,55,-99.99,,,0.00,424.779999,,2013-07-06 02:02:00,
2013-07-05 19:11:00,71.0,54.0,30.00,West,264,8.0,15.0,55,-99.99,,,0.00,424.779999,,2013-07-06 02:11:00,
2013-07-05 19:43:00,70.0,55.0,29.99,West,270,7.0,11.0,58,-99.99,,,0.00,218.139999,,2013-07-06 02:43:00,
2013-07-05 19:53:00,70.0,55.0,29.99,West,270,7.0,11.0,58,-99.99,,,0.00,218.139999,,2013-07-06 02:53:00,
2013-07-05 20:02:00,70.0,55.0,29.99,West,270,7.0,11.0,58,-99.99,,,0.00,218.139999,,2013-07-06 03:02:00,
2013-07-05 20:11:00,70.0,55.0,29.99,West,270,7.0,11.0,58,-99.99,,,0.00,218.139999,,2013-07-06 03:11:00,
2013-07-05 20:43:00,68.0,55.0,29.99,West,278,6.0,9.0,64,-99.99,,,0.00,23.129999,,2013-07-06 03:43:00,
2013-07-05 20:53:00,68.0,55.0,29.99,West,278,6.0,9.0,64,-99.99,,,0.00,23.129999,,2013-07-06 03:53:00,
2013-07-05 21:01:00,68.0,55.0,-100.00,West,278,6.0,9.0,64,-99.99,,,0.00,23.129999,,2013-07-06 04:01:00,
2013-07-05 21:12:00,68.0,55.0,29.99,West,278,6.0,9.0,64,-99.99,,,0.00,23.129999,,2013-07-06 04:12:00,
2013-07-05 21:43:00,65.0,55.0,-100.00,West,272,4.0,7.0,69,-99.99,,,0.00,1.980000,,2013-07-06 04:43:00,
2013-07-05 21:53:00,65.0,55.0,-100.00,West,272,4.0,7.0,69,-99.99,,,0.00,1.980000,,2013-07-06 04:53:00,
2013-07-05 22:02:00,65.0,55.0,29.99,West,272,4.0,7.0,69,-99.99,,,0.00,1.980000,,2013-07-06 05:02:00,
2013-07-05 22:12:00,65.0,55.0,29.99,West,272,4.0,7.0,69,-99.99,,,0.00,1.980000,,2013-07-06 05:12:00,
2013-07-05 22:42:00,64.0,55.0,30.01,West,266,3.0,6.0,72,-99.99,,,-99.99,0.000000,,2013-07-06 05:42:00,
2013-07-05 22:53:00,64.0,55.0,30.01,West,266,3.0,6.0,72,-99.99,,,-99.99,0.000000,,2013-07-06 05:53:00,
2013-07-05 23:01:00,64.0,55.0,-100.00,West,266,3.0,6.0,72,-99.99,,,-99.99,0.000000,,2013-07-06 06:01:00,
2013-07-05 23:12:00,64.0,55.0,30.01,West,266,3.0,6.0,72,-99.99,,,-99.99,0.000000,,2013-07-06 06:12:00,
2013-07-05 23:43:00,63.0,55.0,30.01,West,268,3.0,9.0,76,-99.99,,,-99.99,0.000000,,2013-07-06 06:43:00,
2013-07-05 23:53:00,63.0,55.0,30.01,West,268,3.0,9.0,76,-99.99,,,-99.99,0.000000,,2013-07-06 06:53:00,